This demonstration page uses our WeatherBlox Daily Observations layout. Learn more.

Left ArrowRight Arrow

44.8408, -93.29828

Hourly Observations for December 26, 2017

Temp ( °F °C ) Dew Point ( °F °C ) Humidity (%) Winds ( mph kmh ) Pressure ( in mb ) Visibility ( mi km ) Precip ( " mm )
12:53 am 00:53 Clear -6 -21.1 -14 -25.6 67 67 WNW 10 17 30.55 1035 10 16 0.00 0.00
1:53 am 01:53 Clear -6 -21.1 -14 -25.6 67 67 WNW 10 17 30.56 1035 10 16 0.00 0.00
2:53 am 02:53 Clear -6 -21.1 -14 -25.6 67 67 WNW 8 13 30.57 1035 10 16 0.00 0.00
3:53 am 03:53 Clear -7 -21.7 -14 -25.6 71 71 WNW 10 17 30.58 1036 10 16 0.00 0.00
4:53 am 04:53 Clear -7 -21.7 -15 -26.1 68 68 WNW 12 19 30.59 1036 10 16 0.00 0.00
5:53 am 05:53 Clear -8 -22.2 -15 -26.1 71 71 WNW 12 19 30.60 1036 10 16 0.00 0.00
6:53 am 06:53 Clear -8 -22.2 -15 -26.1 71 71 WNW 9 15 30.61 1037 10 16 0.00 0.00
7:53 am 07:53 Mostly Sunny -8 -22.2 -15 -26.1 71 71 WNW 8 13 30.62 1037 10 16 0.00 0.00
8:53 am 08:53 Sunny -7 -21.7 -14 -25.6 71 71 WNW 12 19 30.64 1038 10 16 0.00 0.00
9:53 am 09:53 Sunny -6 -21.1 -14 -25.6 67 67 WNW 13 20 30.67 1039 10 16 0.00 0.00
10:53 am 10:53 Mostly Sunny -4 -20 -13 -25 65 65 W 8 13 30.68 1039 10 16 0.00 0.00
11:53 am 11:53 Partly Cloudy -2 -18.9 -12 -24.4 62 62 W 9 15 30.66 1038 10 16 0.00 0.00
12:53 pm 12:53 Partly Cloudy -2 -18.9 -12 -24.4 62 62 WNW 12 19 30.65 1038 10 16 0.00 0.00
1:53 pm 13:53 Mostly Sunny 0 -17.8 -11 -23.9 59 59 WNW 8 13 30.64 1038 10 16 0.00 0.00
2:53 pm 14:53 Mostly Sunny 1 -17.2 -10 -23.3 59 59 WNW 10 17 30.64 1038 10 16 0.00 0.00
3:53 pm 15:53 Mostly Sunny 0 -17.8 -10 -23.3 62 62 W 9 15 30.64 1038 10 16 0.00 0.00
4:53 pm 16:53 Clear 0 -17.8 -9 -22.8 65 65 W 7 11 30.65 1038 10 16 0.00 0.00
5:53 pm 17:53 Clear -1 -18.3 -9 -22.8 68 68 W 8 13 30.67 1039 10 16 0.00 0.00
6:53 pm 18:53 Mostly Clear 0 -17.8 -9 -22.8 65 65 W 7 11 30.68 1039 10 16 0.00 0.00
7:53 pm 19:53 Clear -1 -18.3 -10 -23.3 65 65 WNW 10 17 30.70 1040 10 16 0.00 0.00
8:53 pm 20:53 Mostly Clear -3 -19.4 -10 -23.3 71 71 WNW 10 17 30.71 1040 10 16 0.00 0.00
9:53 pm 21:53 Mostly Clear -4 -20 -11 -23.9 71 71 WNW 8 13 30.72 1040 10 16 0.00 0.00
10:53 pm 22:53 Clear -5 -20.6 -11 -23.9 75 75 NW 9 15 30.73 1041 10 16 0.00 0.00
11:53 pm 23:53 Clear -5 -20.6 -11 -23.9 75 75 NW 9 15 30.75 1041 10 16 0.00 0.00

Powered by AerisWeather